Location: Gro�wechsungen
(51.4926°N, 10.6901°E)
Time: 07:42:41
(UTC+00:00)

SPOT 3 Rocket - Pass Details

Date: 27 January 2021
Orbit: 780 x 794 km, 98.7° (Epoch: 24 February)

Event Time Altitude Azimuth Distance (km) Brightness Sun altitude
Exits shadow 19:55:49 17° 341° (NNW) 1,926 5.8 -36.6°
Drops below altitude 10° 19:56:54 10° 342° (NNW) 2,350 6.3 -36.7°
Sets 19:59:14 0° 344° (NNW) 3,284 7.2 -37.1°
